Flag for Uruguay Weather past 2 weeks in Maldonado, Uruguay

Now
N/A

Clear.


Feels Like: N/A
Forecast: 61 / 83 °F
Wind: 3 mph from Northeast

Location: Capitan Corbeta

Current Time: Oct 22, 2014 at 2:55:23 AM

Latest Report: Oct 22, 2014 at 12:00 AM


Visibility: 10 mi

Pressure: N/A

Humidity: N/A

Dew point: N/A

Location of MaldonadoLocation

Historic Weather in Maldonado — Graph

°F

Maldonado temperature yesterday

Maximum temperature yesterday: 81 °F (at 5:00 PM)
Minimum temperature yesterday: 54 °F (at 5:00 AM)
Average temperature yesterday: 66 °F

Past Weeks' High & Low Weather Summary

 TemperatureHumidityPressure
High81 °F (Oct 8, 3:00 PM)100% (Oct 9, 7:00 AM)30.18 "Hg (Oct 9, 7:00 AM)
Low48 °F (Oct 13, 4:00 AM)31% (Oct 17, 3:00 PM)29.53 "Hg (Oct 9, 5:00 PM)
Average63 °F77%29.94 "Hg
* Reported Midnight between Oct 6 and Oct 7 — Midnight between Oct 21 and Oct 22, Maldonado, Weather by CustomWeather, © 2014

Note: Actual official high and low records may vary slightly from our data, if they occured in-between our weather recording intervals... More about our weather records

Advertising

Maldonado weather history for previous 24 hours

 ConditionsComfort  
Time TempWeatherWind HumidityBarometerVisibility
12:00 AM
Oct 22
N/AClear.3 mphN/AN/A10 mi
11:00 PM
Oct 21
64 °FClear.5 mph78%30.07 "Hg10 mi
10:00 PM66 °FClear.5 mph73%30.07 "Hg10 mi
9:00 PM68 °FClear.3 mph69%30.07 "Hg10 mi
8:00 PM72 °FClear.3 mph61%30.07 "Hg10 mi
7:00 PM75 °FSunny.5 mph50%30.07 "Hg10 mi
6:00 PM79 °FSunny.9 mph39%30.07 "Hg10 mi
5:00 PM81 °FSunny.8 mph37%30.07 "Hg10 mi
4:00 PM79 °FSunny.9 mph37%30.07 "Hg10 mi
3:00 PM79 °FSunny.15 mph39%30.09 "Hg10 mi
2:00 PM75 °FSunny.7 mph44%30.12 "Hg10 mi
1:00 PM73 °FSunny.10 mph47%30.12 "Hg10 mi
12:00 PM72 °FSunny.13 mph53%30.15 "Hg10 mi
11:00 AM70 °FSunny.10 mph53%30.15 "Hg10 mi
10:00 AM66 °FSunny.9 mph60%30.15 "Hg10 mi
9:00 AM61 °FSunny.7 mph77%30.12 "Hg10 mi
8:00 AM55 °FSunny.5 mph88%30.12 "Hg10 mi
7:00 AM55 °FSunny.7 mph82%30.12 "Hg10 mi
6:00 AM55 °FClear.7 mph82%30.12 "Hg10 mi
5:00 AM54 °FClear.5 mph82%30.12 "Hg10 mi
4:00 AM55 °FClear.7 mph82%30.12 "Hg10 mi
2:00 AM57 °FClear.6 mph82%30.15 "Hg10 mi
Weather by CustomWeather, © 2014

See weather overviewHow to use our weather pages